Tracking 18987 objects as of 25-Feb-2018
HD Live streaming from Space Station
objects crossing your sky now

BREEZE-M R/B

Track BREEZE-M R/B now!


NORAD ID: 33375
Int'l Code: 2008-044C
Perigee: 4,242.2 km
Apogee: 35,594.7 km
Inclination: 12.0 °
Period: 707.0 minutes
Semi major axis: 26289 km
RCS: 7.5123 m2 (large)
Launch date: September 19, 2008
Source: Commonwealth of Independent States (former USSR) (CIS)
Launch site: TYURATAM MISSILE AND SPACE COMPLEX (TTMTR)

Note: This is a ROCKET BODY
aabbcc
Your satellite tracking list
Your tracking list is empty




NASA's NSSDC Master Catalog

Two Line Element Set (TLE):
1 33375U 08044C   18055.25972236 +.00000036 +00000-0 +00000-0 0  9991
2 33375 011.9959 103.8697 5962948 052.9802 001.2308 02.03671902070168
Source of the keplerian elements: AFSPC